Вернуться в каталог

SATCOM 1R

АктивенСвязьGEO
NORAD 13984·PAYLOAD·🇺🇸 United States

Запущен Apr 11, 1983 с Cape Canaveral Space Force Station

Loading…

TLE

СвежийSource: Space-Track

Эпоха: Sep 14, 2026, 11:20 UTC

1 13984U 83030A   26257.47278054 -.00000101  00000-0  00000-0 0  9991
2 13984  13.1310 337.8743 0006758 155.0783 204.6007  0.99862225131362

Отслеживайте SATCOM 1R в реальном времени с AllMySat

Download on the App Store